[[[{"header":{"parameterUnit":"kt","parameterCategory":2,"dx":1,"dy":1,"la1":30.253999710083008,"la2":30.299108505249023,"lo1":-89.0895004272461,"lo2":-89.04439544677734,"nx":28,"ny":28,"refTime":"2022-09-27T15:00:00:Z","depth":0,"parameterNumber":1,"parameterNumberName":"U-component_of_WINDS"},"data":[-8.5891,-8.616,-8.6147,-8.6447,-8.6485,-8.6688,-8.6756,-8.6842,-8.6907,-8.7146,-8.7281,-8.7294,-8.7353,-8.751,-8.7655,-8.7657,-8.7722,-8.7825,-8.7811,-8.7357,-8.7293,-8.7232,-8.717,-8.7838,-8.7839,-8.8286,-8.829,-8.8294,-8.5556,-8.5597,-8.5752,-8.5893,-8.6025,-8.5916,-8.6019,-8.6137,-8.6321,-8.6403,-8.6535,-8.6744,-8.6907,-8.6931,-8.7086,-8.7211,-8.717,-8.7254,-8.7247,-8.7259,-8.6771,-8.6704,-8.7285,-8.7284,-8.7284,-8.7284,-8.7284,-8.7284,-8.4943,-8.5105,-8.5182,-8.535,-8.5417,-8.5511,-8.5663,-8.5676,-8.5826,-8.5987,-8.594,-8.6148,-8.6227,-8.6407,-8.6464,-8.6625,-8.6529,-8.6618,-8.6642,-8.6666,-8.6696,-8.6058,-8.665,-8.6648,-8.6646,-8.6645,-8.6644,0,-8.4491,-8.4469,-8.4617,-8.4761,-8.4883,-8.4993,-8.5092,-8.5185,-8.5132,-8.526,-8.5442,-8.5545,-8.5747,-8.5918,-8.6059,-8.61,-8.6004,-8.599,-8.6052,-8.6082,-8.6089,-8.6093,-8.5302,-8.5975,-8.5969,-8.5965,-8.5962,-8.596,-8.3876,-8.4065,-8.414,-8.4245,-8.4296,-8.4467,-8.4567,-8.4506,-8.4614,-8.4726,-8.4872,-8.504,-8.5174,-8.5468,-8.5482,-8.5634,-8.5589,-8.5848,-8.5612,-8.563,-8.5599,-8.5591,-8.561,-8.5898,-8.5906,-8.5912,-8.5918,0,-8.3532,-8.3508,-8.3798,-8.3852,-8.3872,-8.4074,-8.412,-8.4279,-8.4273,-8.4491,-8.4538,-8.4532,-8.4712,-8.4683,-8.4884,-8.4864,-8.5196,-8.5146,-8.5168,-8.5158,-8.5391,-8.5371,-8.6142,-8.6241,-8.5542,-8.5548,-8.5554,0,-8.3,-8.3251,-8.3203,-8.3372,-8.3648,-8.3581,-8.3856,-8.3879,-8.3947,-8.4117,-8.4,-8.4163,-8.41,-8.4259,-8.423,-8.4495,-8.4532,-8.4534,-8.4525,-8.4548,-8.4549,-8.461,-8.458,-8.4489,-8.4485,-8.4482,-8.4479,0,-8.2468,-8.2735,-8.3008,-8.3066,-8.3151,-8.3281,-8.3322,-8.3397,-8.3495,-8.3617,-8.368,-8.3827,-8.391,-8.4025,-8.3987,-8.3828,-8.4309,-8.4083,-8.4313,-8.4314,-8.4426,-8.4421,-8.5105,-8.4474,-8.4473,-8.4472,-8.447,0,-8.2038,-8.2163,-8.2562,-8.2629,-8.2703,-8.2882,-8.3023,-8.317,-8.3258,-8.3251,-8.3347,-8.3267,-8.3495,-8.3272,-8.3586,-8.339,-8.3477,-8.3498,-8.3514,-8.3539,-8.3293,-8.3689,-8.4338,-8.4408,-8.3553,-8.3545,-8.3538,0,-8.1437,-8.1833,-8.1779,-8.216,-8.234,-8.2197,-8.2395,-8.2476,-8.2484,-8.2636,-8.2643,-8.2819,-8.2647,-8.2699,-8.2856,-8.2872,-8.3126,-8.2836,-8.3062,-8.3071,-8.3048,-8.3644,-8.3751,-8.4197,-8.344,-8.345,-8.3458,0,-8.0969,-8.107,-8.1143,-8.1206,-8.1303,-8.1452,-8.1679,-8.1839,-8.1944,-8.2047,-8.2238,-8.2482,-8.2363,-8.245,-8.2401,-8.2568,-8.2952,-8.2419,-8.242,-8.252,-8.3387,-8.3487,-8.3562,-8.2882,-8.2894,-8.2904,-8.3379,0,-8.0332,-8.0526,-8.0718,-8.0862,-8.0972,-8.1209,-8.1179,-8.1298,-8.124,-8.1243,-8.1521,-8.1582,-8.1746,-8.1822,-8.1768,-8.2156,-8.2088,-8.196,-8.1748,-8.2136,-8.2293,-8.2356,-8.1516,-8.151,-8.1504,-8.15,0,0,-7.9765,-8.0044,-7.9979,-8.0198,-8.0287,-8.0137,-8.0393,-8.0463,-8.0609,-8.0675,-8.0553,-8.091,-8.0966,-8.1308,-8.1426,-8.1492,-8.156,-8.1426,-8.195,-8.2001,-8.2047,-8.2215,-8.2281,-8.149,-8.1488,-8.1486,-8.1484,0,-7.9528,-7.9585,-7.9838,-7.9906,-8.0006,-7.9997,-8.0057,-8.0131,-8.0145,-8.0416,-8.0292,-8.0455,-8.0742,-8.0819,-8.0895,-8.1381,-8.1281,-8.1433,-8.1706,-8.1896,-8.1954,-8.2004,-8.2181,-8.2245,-8.1471,-8.1472,-8.1472,0,-7.9066,-7.9119,-7.9237,-7.9433,-7.9497,-7.9686,-7.9453,-7.9662,-7.9801,-7.963,-7.9903,-7.9934,-8.0033,-8.0359,-8.0504,-8.0399,-8.1029,-8.0824,-8.0858,-8.0876,-8.1059,-8.1128,-8.119,-8.0379,-8.0375,-8.0372,0,0,-7.8865,-7.9045,-7.9085,-7.938,-7.9429,-7.9419,-7.9516,-7.9469,-7.956,-7.9598,-7.9637,-7.9731,-7.9896,-8.0007,-8.0161,-8.0522,-8.054,-8.0691,-8.0743,-8.0785,-8.0825,-8.102,-8.1088,-8.0358,-8.0357,-8.0357,0,0,-7.877,-7.8827,-7.8752,-7.909,-7.9181,-7.9242,-7.9423,-7.9334,-7.9469,-7.944,-7.9371,-7.9393,-7.9697,-7.9733,-7.955,-8.0086,-7.9875,-7.9918,-8.0052,-8.0117,-8.0168,-8.0155,-7.9324,0,0,0,0,0,-7.8513,-7.8819,-7.875,-7.8803,-7.9051,-7.9279,-7.931,-7.926,-7.9111,-7.9256,-7.9274,-7.9158,-7.962,-7.9456,-7.9509,-7.9717,-8.0178,-8.021,-8.024,-8.0498,-8.0566,-8.0623,0,0,0,0,0,0,-7.8533,-7.8598,-7.8742,-7.8816,-7.8871,-7.9267,-7.9004,-7.8999,-7.9094,-7.9068,-7.9158,-7.9161,-7.9124,-7.9425,-7.9474,-7.9672,-7.9307,-8.0191,-8.0218,-8.0242,-8.0521,-8.0577,-8.0625,0,0,0,0,0,-7.8549,-7.8601,-7.9012,-7.8811,-7.8859,-7.8865,-7.8992,-7.8986,-7.9059,-7.9088,-7.9087,-7.9013,-7.9131,-7.9169,-7.9454,-7.9651,-7.9272,-7.9291,-8.0208,-8.023,-8.0249,-8.0549,0,0,0,0,0,0,-7.8561,-7.8597,-7.902,-7.9033,-7.8692,-7.8842,-7.8864,-7.8975,-7.9071,-7.9073,-7.8937,-7.8916,-7.9139,-7.9167,-7.9197,-7.9647,-7.9244,-7.9263,-7.9275,-8.0224,-8.0241,-8.0256,0,0,0,0,0,0,-7.8569,-7.8609,-7.9027,-7.888,-7.8875,-7.8821,-7.8841,-7.9075,-7.9074,-7.8915,-7.8899,-7.8927,-7.9095,-7.9168,-7.919,-7.9559,-7.9223,-7.9241,-7.9253,-7.9261,-8.0238,-8.0251,0,0,0,0,0,0,-7.8585,-7.8619,-7.8876,-7.8873,-7.8868,-7.9007,-7.9027,-7.9285,-7.8947,-7.8913,-7.8915,-7.89,-7.9099,-7.912,-7.9187,-7.9547,-7.9556,-7.9223,-7.9236,-7.9244,-7.925,0,0,0,0,0,0,0,-7.8598,-7.8379,-7.8945,-7.8867,-7.8862,-7.9151,-7.9155,-7.9158,-7.8943,-7.8931,-7.8918,-7.8906,-7.912,-7.914,-7.916,-7.9537,0,0,-7.9222,-7.923,0,0,0,0,0,0,0,0,-7.8363,-7.8375,-7.8945,-7.8948,-7.8951,-7.9152,-7.9155,-7.9157,-7.8941,-7.8931,-7.8921,-7.8911,-7.9125,-7.9141,-7.9157,0,0,0,0,0,0,0,0,0,0,0,0,0,0,0,-7.8946,-7.8948,0,-7.9152,-7.9155,-7.9157,-7.894,-7.8931,-7.8923,-7.8915,-7.913,-7.9143,-7.9156,0,0,0,0,0,0,0,0,0,0,0,0,0,0,0,0,0,0,0,0,0,0,0,0,0,0,0,0,0,0,0,0,0,0,0,0,0,0,0,0,0,0,0,0,0,0,0,0,0,0,0,0,0,0,0,0,0,0,0,0,0,0,0,0,0,0,0,0,0]}],[{"header":{"parameterUnit":"kt","parameterCategory":2,"dx":1,"dy":1,"la1":30.253999710083008,"la2":30.299108505249023,"lo1":-89.0895004272461,"lo2":-89.04439544677734,"nx":28,"ny":28,"refTime":"2022-09-27T15:00:00:Z","depth":0,"parameterNumber":2,"parameterNumberName":"V-component_of_WINDS"},"data":[-17.0746,-17.1044,-17.1031,-17.1362,-17.1406,-17.1628,-17.1702,-17.1795,-17.1864,-17.2123,-17.2267,-17.2279,-17.2337,-17.2501,-17.2653,-17.2653,-17.2719,-17.2835,-17.2815,-17.2315,-17.2244,-17.2177,-17.2107,-17.2849,-17.285,-17.3335,-17.3339,-17.3343,-17.0377,-17.0425,-17.0598,-17.0755,-17.0901,-17.0781,-17.0893,-17.1022,-17.1222,-17.131,-17.1452,-17.1676,-17.1849,-17.1867,-17.2029,-17.2161,-17.2112,-17.2206,-17.2196,-17.2206,-17.1671,-17.1598,-17.2244,-17.2243,-17.2243,-17.2243,-17.2243,-17.2243,-16.9703,-16.9883,-16.9971,-17.0157,-17.0232,-17.0336,-17.0502,-17.0515,-17.0679,-17.0852,-17.0798,-17.1022,-17.1102,-17.1288,-17.1344,-17.1514,-17.1406,-17.1502,-17.1527,-17.1552,-17.1583,-17.0885,-17.154,-17.1538,-17.1537,-17.1535,-17.1534,0,-16.9205,-16.9182,-16.9347,-16.9508,-16.9642,-16.9764,-16.9872,-16.9974,-16.9912,-17.0051,-17.0248,-17.0358,-17.0572,-17.0752,-17.0898,-17.0936,-17.0821,-17.0807,-17.0874,-17.0904,-17.0913,-17.0911,-17.0039,-17.0788,-17.0782,-17.0777,-17.0774,-17.0771,-16.8524,-16.8736,-16.882,-16.8937,-16.8993,-16.9183,-16.9291,-16.9222,-16.9339,-16.9458,-16.9617,-16.9798,-16.9939,-17.0252,-17.0257,-17.0416,-17.0361,-17.0649,-17.0384,-17.0404,-17.0365,-17.0354,-17.0373,-17.0702,-17.0711,-17.0718,-17.0724,0,-16.8141,-16.8117,-16.844,-16.8501,-16.8522,-16.8746,-16.8794,-16.8968,-16.8959,-16.9196,-16.9247,-16.9232,-16.9424,-16.9383,-16.9593,-16.9565,-16.9924,-16.9866,-16.9895,-16.9882,-17.0135,-17.0112,-17.0966,-17.1073,-17.0303,-17.0311,-17.0317,0,-16.755,-16.783,-16.7777,-16.7966,-16.8272,-16.8196,-16.85,-16.8522,-16.8593,-16.8779,-16.8643,-16.8819,-16.8739,-16.8908,-16.8867,-16.9153,-16.9192,-16.9187,-16.9173,-16.92,-16.9201,-16.9259,-16.9224,-16.9133,-16.9128,-16.9124,-16.9121,0,-16.6954,-16.7253,-16.7559,-16.7623,-16.7715,-16.7859,-16.7903,-16.7981,-16.8087,-16.8217,-16.8285,-16.8441,-16.8527,-16.8647,-16.8594,-16.8416,-16.8942,-16.8686,-16.8937,-16.8939,-16.9057,-16.905,-16.9816,-16.9116,-16.9114,-16.9113,-16.9112,0,-16.6473,-16.6613,-16.706,-16.7133,-16.7214,-16.7414,-16.7565,-16.7727,-16.7818,-16.7807,-16.7908,-16.7812,-16.806,-16.7808,-16.8146,-16.7929,-16.802,-16.8037,-16.8055,-16.8075,-16.7795,-16.8233,-16.8967,-16.9042,-16.8092,-16.8083,-16.8076,0,-16.5797,-16.6242,-16.6181,-16.6607,-16.6807,-16.6642,-16.6862,-16.6948,-16.6951,-16.7116,-16.7116,-16.7306,-16.711,-16.7163,-16.7336,-16.7343,-16.7625,-16.7303,-16.7538,-16.7547,-16.752,-16.8195,-16.8315,-16.881,-16.7966,-16.7978,-16.7986,0,-16.527,-16.5383,-16.5464,-16.5533,-16.5638,-16.5804,-16.6057,-16.623,-16.6344,-16.6455,-16.6663,-16.6927,-16.6789,-16.6879,-16.6817,-16.7,-16.7431,-16.6827,-16.6827,-16.6937,-16.7908,-16.802,-16.8104,-16.7348,-16.7361,-16.7372,-16.7899,0,-16.4548,-16.4768,-16.4984,-16.5143,-16.5265,-16.553,-16.5491,-16.5623,-16.5552,-16.5549,-16.5854,-16.5913,-16.6085,-16.6169,-16.6101,-16.6533,-16.6453,-16.6305,-16.6057,-16.65,-16.6672,-16.6743,-16.5803,-16.5795,-16.5789,-16.5784,0,0,-16.3906,-16.4221,-16.4147,-16.4392,-16.449,-16.4316,-16.4602,-16.4676,-16.4832,-16.4902,-16.4763,-16.5146,-16.52,-16.5574,-16.5709,-16.5779,-16.5851,-16.5699,-16.6289,-16.6346,-16.6398,-16.6584,-16.6658,-16.5773,-16.577,-16.5768,-16.5766,0,-16.3635,-16.3702,-16.3988,-16.4062,-16.4171,-16.4154,-16.4223,-16.4298,-16.431,-16.461,-16.4459,-16.4636,-16.4945,-16.5021,-16.5101,-16.5653,-16.5528,-16.5708,-16.6019,-16.6227,-16.6292,-16.6349,-16.6545,-16.6617,-16.575,-16.5751,-16.5752,0,-16.3109,-16.3168,-16.3302,-16.352,-16.3589,-16.3798,-16.3529,-16.3763,-16.3916,-16.3709,-16.401,-16.4037,-16.4135,-16.4495,-16.4655,-16.4533,-16.5235,-16.5006,-16.5045,-16.5062,-16.526,-16.5339,-16.5409,-16.449,-16.4486,-16.4482,0,0,-16.288,-16.3084,-16.3124,-16.3459,-16.3513,-16.3493,-16.36,-16.3542,-16.3637,-16.3676,-16.3708,-16.3803,-16.398,-16.41,-16.4264,-16.4665,-16.4678,-16.4853,-16.4912,-16.4961,-16.5005,-16.5216,-16.5294,-16.4466,-16.4466,-16.4465,0,0,-16.2769,-16.283,-16.2743,-16.3127,-16.3225,-16.3284,-16.3488,-16.3382,-16.3527,-16.3492,-16.34,-16.3421,-16.3756,-16.3789,-16.3581,-16.4174,-16.393,-16.3979,-16.4142,-16.4216,-16.4275,-16.426,-16.3312,0,0,0,0,0,-16.2472,-16.2821,-16.2743,-16.2801,-16.3076,-16.3328,-16.3362,-16.3297,-16.3125,-16.3288,-16.3298,-16.3157,-16.3657,-16.3472,-16.3529,-16.3761,-16.4261,-16.4298,-16.4332,-16.4636,-16.4715,-16.4781,0,0,0,0,0,0,-16.2495,-16.2567,-16.2733,-16.2808,-16.2868,-16.3315,-16.301,-16.3001,-16.3106,-16.3075,-16.316,-16.316,-16.3106,-16.3437,-16.349,-16.3712,-16.3294,-16.4276,-16.4307,-16.4334,-16.4663,-16.4727,-16.4782,0,0,0,0,0,-16.2512,-16.2571,-16.3029,-16.2802,-16.2855,-16.2851,-16.2996,-16.2987,-16.3066,-16.3082,-16.3078,-16.3007,-16.3115,-16.3154,-16.3468,-16.369,-16.3257,-16.3276,-16.4296,-16.432,-16.4342,-16.4695,0,0,0,0,0,0,-16.2525,-16.2562,-16.3038,-16.3051,-16.2666,-16.2825,-16.2848,-16.2975,-16.3064,-16.3064,-16.2923,-16.2898,-16.3125,-16.3153,-16.3185,-16.3686,-16.3226,-16.3247,-16.3259,-16.4314,-16.4333,-16.435,0,0,0,0,0,0,-16.253,-16.2575,-16.3045,-16.2877,-16.287,-16.2801,-16.2822,-16.3078,-16.3068,-16.2899,-16.2881,-16.2911,-16.3076,-16.3155,-16.3179,-16.3581,-16.3203,-16.3223,-16.3236,-16.3245,-16.433,-16.4345,0,0,0,0,0,0,-16.2548,-16.2586,-16.2873,-16.2868,-16.2861,-16.3007,-16.3025,-16.3309,-16.2928,-16.2898,-16.2892,-16.2875,-16.3082,-16.3103,-16.3175,-16.3569,-16.3578,-16.3204,-16.3217,-16.3226,-16.3233,0,0,0,0,0,0,0,-16.2562,-16.2322,-16.2959,-16.2861,-16.2854,-16.3176,-16.3179,-16.3183,-16.2925,-16.291,-16.2896,-16.2882,-16.3092,-16.3113,-16.3135,-16.356,0,0,-16.3202,-16.3211,0,0,0,0,0,0,0,0,-16.2304,-16.2318,-16.2959,-16.2962,-16.2965,-16.3176,-16.3179,-16.3182,-16.2922,-16.291,-16.2899,-16.2888,-16.3098,-16.3115,-16.3132,0,0,0,0,0,0,0,0,0,0,0,0,0,0,0,-16.296,-16.2962,0,-16.3177,-16.3179,-16.3182,-16.292,-16.2911,-16.2901,-16.2892,-16.3103,-16.3117,-16.3131,0,0,0,0,0,0,0,0,0,0,0,0,0,0,0,0,0,0,0,0,0,0,0,0,0,0,0,0,0,0,0,0,0,0,0,0,0,0,0,0,0,0,0,0,0,0,0,0,0,0,0,0,0,0,0,0,0,0,0,0,0,0,0,0,0,0,0,0,0]}]]]